Погода в Елани

Погода в Елани : погода сейчас, прогноз погоды и архив. Всё, что Вы хотите узнать о погоде в Елани!

Хотите узнать прогноз погоды в Елани? Тогда Вам сюда: Погода в Елани

Поиск расширенной информации на нашем сайте:

Другие новости

Новости СМИ2

Главная страница сайта

Новости сайта

03.07.2017

Напоминаем, что на нашем специализированном сайте Метеоцентр.Азия вы можете получить высокодетализированные автоматические прогнозы погоды по пунктам России, СНГ и мира в авиационном формате (включающие направление и скорость ветра, видимость, явления погоды, количество и форму облачности, нижнюю и верхнюю границу облачности).


Погода в Елани - сегодня

Время (UTC), дата Ветер
(°,м/с) 
Видим.   Явления Облачность Т
(°С)
Тd
(°С)
f(%) Тe
(°С)
Pmin
(гПа)
dP
(гПа)
Po
(мм)
O2
(г/м3)
Тmin Tmax R s Состояние
почвы
00 19.09.17 180 (Ю) 20000 м    ясно 
+19.8 +6.9 43 +20  1014.1  0.1  749  280           
03 19.09.17 150 (ЮВ) 20000 м    3/0 верхняя 
[Ci fib]
+16.7 +8.3 58 +18  1014.8  0.5  749  283  +16.7        сухая 
06 19.09.17 190 (Ю) 20000 м    ясно 
+23.7 +9.6 41 +24  1015.5  1.1  750  276  +16.2         
09 19.09.17 210 (ЮЗ) 20000 м    3/0 верхняя 
[Ci fib]
+28.9 +8.3 27 +29  1015.2  750  272           
12 19.09.17 240 (ЮЗ) 4{11}  20000 м    3/0 верхняя 
[Ci fib]
+30.2 +8.6 26 +30  1014.7  -0.5  750  271           
15 19.09.17 330 (СЗ) 20000 м    ясно 
+24.4 +10.6 42 +26  1015.7  0.7  750  276    +30.6       
18 19.09.17 350 (С) 20000 м    ясно 
+17.6 +9.9 61 +19  1017.4  1.3  751  283           
21 19.09.17 010 (С) 20000 м    ясно 
+14.7 +7.7 63 +15  1018.3  0.8  752  286           
00 20.09.17 020 (С) 20000 м    ясно 
+12.9 +5.6 61 +13  1019.2  0.7  752  289           
03 20.09.17 360 (С) 20000 м    ясно 
+11.6 +6.1 69 +11  1019.5  0.3  753  290  +11.5        сухая 
06 20.09.17 030 (СВ) 20000 м    ясно 
+18.8 +7.5 48 +19  1020  0.9  753  283           
09 20.09.17 040 (СВ) 20000 м    ясно 
+24.4 +7.4 34 +24  1019.2  -0.5  753  277           
12 20.09.17 040 (СВ) 20000 м    ясно 
+26.4 +7.1 29 +26  1018.6  -0.5  752  275           
15 20.09.17 020 (С) 20000 м    ясно 
+22.3 +8.4 41 +22  1019  0.2  753  279    +26.5       
18 20.09.17 020 (С) 20000 м    ясно 
+16.7 +6.3 50 +17  1020  0.6  753  285           
21 20.09.17 040 (СВ) 20000 м    ясно 
+14.2 +6 58 +14  1020.3  0.2  753  288           
00 21.09.17 050 (СВ) 20000 м    ясно 
+13.6 +6.2 61 +14  1020.4  753  288           
03 21.09.17 060 (СВ) 20000 м    3/0 средняя 
[Ac trans]
+12.8 +6.8 67 +13  1021.2  0.8  754  289  +12.8        сухая 
06 21.09.17 070 (В) 20000 м    ясно 
+18.8 +7 46 +19  1021  0.2  754  283  +12.8         
09 21.09.17 050 (СВ) 5{10}  20000 м    ясно 
+24.5 +6.3 31 +25  1020.4  -0.3  754  278           
12 21.09.17 060 (СВ) 5{10}  20000 м    4/0 верхняя 
[Ci fib]
+26.1 +6.7 29 +26  1019.8  -0.5  753  276           
15 21.09.17 050 (СВ) 4{10}  20000 м    8/0 верхняя 
[Ci fib]
+21.7 +5.1 34 +22  1020.8  0.7  754  281    +26.3       
18 21.09.17 070 (В) 20000 м    3/0 верхняя 
[Ci fib]
+17.1 +5 45 +18  1021.9  0.9  755  285           
21 21.09.17 060 (СВ) 20000 м    ясно 
+14.7 +6.1 56 +15  1022.7  0.6  755  288           
00 22.09.17 050 (СВ) 20000 м    ясно 
+12.8 +7.5 70 +12  1023.8  0.9  756  290           
Время (UTC), дата Ветер
(°,м/с) 
Видим.   Явления Облачность Т
(°С)
Тd
(°С)
f(%) Тe
(°С)
Pmin
(гПа)
dP
(гПа)
Po
(мм)
O2
(г/м3)
Тmin Tmax R s Состояние
почвы

Для получения пояснительной информации подведите курсор к названию столбца.

ПОГОДА в Елани - архив

Всё, что Вы хотите узнать о погоде в Елани - удобно и подробно!

Выберите нужную дату (начиная с 1 января 2015* года) и нажмите кнопку "Найти".
Будут отображены архивные сводки погоды по пункту Елань, начиная с указанной даты.


Отображать данные в формате CSV (для использования в таблицах Excel)


Внимание! Наш архив погоды предназначен исключительно для личного некоммерческого использования в познавательных целях. Если Вам необходимы официальные справки о состоянии погоды (для производственных, юридических, коммерческих и т.п. целей), обращайтесь в органы Росгидромета.

*Примечание: данная дата относится к архиву по метеостанциям СССР (Россия, СНГ, Балтия).
Архив по метеостанциям Зарубежной Европы и Азии (кроме Китая) хранится 10 дней, по другим регионам земного шара (Китай, Африка, Америка, Австралия, Океания) - 1 день.

Елань - район местоположения метеостанции


Название, широта, долгота, высота метеостанции:
Елань 50.9°ш. 43.7°д. 132 м над ур. моря [Российская Федерация]

Дополнительная информация

В oтличие oт бoльшинства пoгoдных сайтoв мы публикуем пoдрoбную метеoинфoрмацию в детальнoм прoфессиoнальнoм фoрмате.

Характеристики температуры и влажнoсти вoздуха измеряются на высoте 2 м в тени вдали oт зданий и деревьев.
Скoрoсть ветра измеряется на высoте 10 м (на урoвне рoста челoвека скoрoсть ветра ниже в 1.5-2 раза). Если метеoстанция нахoдится в гoрoде или в лесу, тo скoрoсть ветра занижена на 2-4 м/с пo сравнению с oткрытым местoм. Скoрoсть ветра над акватoриями крупных рек и oзёр, а также на вершинах хoлмoв на 2-5 м/с выше, чем в oбычных услoвиях.
Атмoсфернoе давление в разных тoчках местнoсти мoжет значительнo oтличаться oт давления на метеoстанции, в зависимoсти oт услoвий рельефа (при пoдъёме на 10 м давление пoнижается примернo на 1 мм рт.ст.).